#timestamp,LO_Frequency,Hit,StdDev 
1582873215.9,286046993.3,N
1582873235.7,286046990.4,N
1582873255.5,286046989.1,N
1582873275.4,286046989.5,N
1582873295.2,286046986.4,N
1582873315.1,286046989.1,N
1582873316.0,286046989.1,N
1582873335.8,286046988.5,N
1582873355.6,286046986.0,N
1582873375.5,286046989.0,N
1582873395.3,286046992.5,N
1582873415.2,286047000.5,N
1582873435.9,286046995.0,N
1582873455.7,286046987.3,N
1582873475.6,286046981.1,Y
1582873495.4,286046987.2,P
1582873515.2,286046998.1,N
1582873535.1,286047005.0,N
1582873536.0,286047005.0,N
1582873555.8,286047002.2,N
1582873575.7,286046999.7,N
1582873595.5,286046994.3,N
1582873615.3,286046999.9,N
1582873635.2,286047002.9,N
1582873655.0,286047008.9,N
1582873655.9,286047008.9,N
1582873675.7,286047006.2,N
1582873695.6,286047002.5,N
1582873715.4,286047001.6,N
1582873735.3,286047006.4,N
1582873755.1,286047005.8,N
1582873756.0,286047005.8,N
1582873775.8,286047000.7,N
1582873795.7,286046993.0,N
1582873815.5,286047000.5,N
1582873835.4,286047007.1,N
1582873855.2,286047004.2,N
1582873875.0,286047002.2,N
1582873875.9,286047002.2,N
1582873895.8,286047001.7,N
1582873915.6,286047002.6,N
1582873935.4,286046991.7,N
1582873955.3,286046994.8,N
1582873975.1,286046993.3,N
1582873995.9,286046994.2,N
1582874015.7,286046988.7,N
1582874035.5,286046996.2,N
1582874055.4,286046996.2,N
1582874075.2,286046994.2,N
1582874095.0,286046985.1,N
1582874095.9,286046985.1,N
1582874115.8,286046980.8,N
1582874135.6,286046975.5,Y
1582874155.5,286046977.7,P
1582874175.3,286046976.8,N
1582874195.1,286046978.8,N
1582874215.9,286046978.9,N
1582874235.7,286046984.2,N
1582874255.5,286046980.1,N
1582874275.4,286046981.4,N
1582874295.2,286046986.6,N
1582874315.1,286046985.0,N
1582874316.0,286046985.0,N
1582874335.8,286046984.6,N
1582874355.6,286046981.5,Y
1582874375.5,286047004.0,P
1582874395.3,286047005.9,N
1582874415.1,286047002.3,N
1582874435.9,286047001.3,N
1582874455.7,286046998.0,N
1582874475.6,286046997.2,N
1582874495.4,286047003.6,N
1582874515.2,286046995.9,N
1582874535.1,286046995.9,N
1582874536.0,286046995.9,N
1582874555.8,286046989.8,N
1582874575.6,286046990.4,N
1582874595.5,286046992.5,N
1582874615.3,286046990.2,N
1582874635.2,286047003.6,N
1582874655.9,286046999.2,N
1582874675.7,286046997.5,N
1582874695.6,286047003.1,N
1582874715.4,286047000.9,N
1582874735.2,286047001.1,N
1582874755.1,286047008.5,N
1582874756.0,286047008.5,N
1582874775.8,286047015.5,N
1582874795.7,286047011.8,N
1582874815.5,286047004.9,N
1582874835.3,286047007.6,N
1582874855.2,286047005.5,N
1582874875.0,286047013.4,N
1582874875.9,286047013.4,N
1582874895.8,286047007.1,N
1582874915.6,286047000.3,N
1582874935.4,286047002.9,N
1582874955.3,286047013.7,N
1582874975.1,286047007.4,N
1582874995.8,286047003.9,N
1582875015.7,286047013.9,N
1582875035.5,286047013.0,N
1582875055.3,286047011.6,N
1582875075.2,286047003.6,N
1582875095.0,286047002.5,N
1582875095.9,286047002.5,N
1582875115.8,286046999.5,N
1582875135.6,286046993.5,N
1582875155.4,286046994.8,N
1582875175.3,286046995.3,N
1582875195.1,286047006.0,N
1582875215.9,286046996.6,N
1582875235.7,286046998.4,N
1582875255.5,286046995.8,N
1582875275.4,286046999.4,N
1582875295.2,286047010.2,N
1582875315.0,286047020.1,Y
1582875315.9,286047020.1,P
1582875335.8,286047017.1,N
1582875355.6,286047010.4,N
1582875375.5,286047012.1,N
1582875395.3,286047011.0,N
1582875415.1,286047012.4,N
1582875435.9,286047005.1,N
1582875455.7,286047001.8,N
1582875475.6,286046997.6,N
1582875495.4,286047001.6,N
1582875515.2,286047001.5,N
1582875535.1,286046998.0,N
1582875536.0,286046998.0,N
1582875555.8,286047000.3,N
1582875575.6,286047012.1,N
1582875595.5,286047016.9,N
1582875615.3,286047037.6,Y
1582875635.2,286047009.2,P
1582875655.0,286047012.3,P
1582875655.9,286047012.3,P
1582875675.7,286047005.8,N
1582875695.6,286047004.5,N
1582875715.4,286047002.4,N
1582875735.3,286046992.1,N
1582875755.1,286046996.5,N
1582875756.0,286046996.5,N
1582875775.8,286047004.5,N
1582875795.7,286047009.2,N
1582875815.5,286047014.9,N
1582875835.3,286047018.6,N
1582875855.2,286047015.5,N
1582875875.0,286047010.6,N
1582875875.9,286047010.6,N
1582875895.8,286047009.3,N
1582875915.6,286047012.8,N
1582875935.4,286047012.2,N
1582875955.3,286047008.0,N
1582875975.1,286046997.0,N
1582875995.8,286046996.4,N
1582876015.7,286046998.1,N
1582876035.5,286047004.0,N
1582876055.4,286046999.9,N
1582876075.2,286047001.7,N
1582876095.0,286047003.1,N
1582876095.9,286047003.1,N
1582876115.8,286047000.5,N
1582876135.6,286047000.9,N
1582876155.4,286047005.7,N
1582876175.3,286046999.9,N
1582876195.1,286047002.7,N
1582876215.9,286046999.6,N
1582876235.7,286046996.5,N
1582876255.5,286047008.3,N
1582876275.4,286047006.4,N
1582876295.2,286047005.8,N
1582876315.0,286047004.2,N
1582876316.0,286047004.2,N
1582876335.8,286046996.6,N
1582876355.6,286047000.4,N
1582876375.5,286046994.1,N
1582876395.3,286046998.7,N
1582876415.1,286047002.0,N
1582876435.9,286047000.9,N
1582876455.7,286046999.5,N
1582876475.5,286046990.3,N
1582876495.4,286046985.4,Y
1582876515.2,286046978.2,P
1582876535.1,286046987.4,N
1582876536.0,286046987.4,N
1582876555.8,286046996.6,N
1582876575.6,286046990.6,N
1582876595.5,286046984.0,N
1582876615.3,286046990.0,N
1582876635.2,286046994.6,N
1582876655.9,286046987.9,N
1582876675.7,286046996.3,N
1582876695.6,286047005.1,N
1582876715.4,286047005.1,N
1582876735.2,286046999.5,N
1582876755.1,286046991.6,N
1582876756.0,286046991.6,N
1582876775.8,286046996.8,N
1582876795.7,286047004.2,N
